Zurück zum Katalog

COSMOS 1818 COOLANT

LostLEO
NORAD 50773·DEBRIS·🇷🇺 Russia

Gestartet Feb 1, 1987 von Baikonur Cosmodrome

Loading…

Nächste Überflüge (nächste 24 Stunden)

TLE

VeraltetSource: Space-Track

Epoche: Oct 28, 2022, 11:40 UTC

1 50773U 87011AN  22301.48636637  .00000512  00000-0  21820-3 0  9994
2 50773  65.0098 337.3866 0012762 266.2741  93.6885 14.34149776525382

Verfolge COSMOS 1818 COOLANT in Echtzeit mit AllMySat

Download on the App Store